Time,TemperatureF,DewpointF,PressureIn,WindDirection,WindDirectionDegrees,WindSpeedMPH,WindSpeedGustMPH,Humidity,HourlyPrecipIn,Conditions,Clouds,dailyrainin,SoftwareType,DateUTC
2013-03-31 00:00:00,42.6,40.7,29.55,North,0,0.7,2.3,93,0.04,-RA,SKC,0.24,WeatherDisplay:10.37,2013-03-30 23:00:00,
2013-03-31 00:05:00,42.6,40.7,29.55,North,0,0.0,0.0,93,0.06,-RA,SKC,0.26,WeatherDisplay:10.37,2013-03-30 23:05:00,
2013-03-31 00:10:00,42.6,40.7,29.55,North,0,0.0,0.0,93,0.06,-RA,SKC,0.26,WeatherDisplay:10.37,2013-03-30 23:10:00,
2013-03-31 00:15:00,42.6,40.7,29.55,NNW,339,0.0,0.0,93,0.04,-RA,SKC,0.26,WeatherDisplay:10.37,2013-03-30 23:15:00,
2013-03-31 00:20:00,42.6,40.7,29.55,NNW,338,0.6,2.3,93,0.06,-RA,SKC,0.28,WeatherDisplay:10.37,2013-03-30 23:20:00,
2013-03-31 00:25:00,42.6,40.7,29.55,NW,315,0.2,0.0,93,0.06,-RA,SKC,0.28,WeatherDisplay:10.37,2013-03-30 23:25:00,
2013-03-31 00:30:00,42.4,40.6,29.54,NW,315,1.6,1.6,93,0.06,-RA,SKC,0.28,WeatherDisplay:10.37,2013-03-30 23:30:00,
2013-03-31 00:35:00,42.4,40.6,29.54,NNW,338,0.0,0.0,93,0.06,-RA,SKC,0.28,WeatherDisplay:10.37,2013-03-30 23:35:00,
2013-03-31 00:40:00,42.3,40.4,29.54,NNE,22,0.0,0.0,93,0.04,-RA,SKC,0.28,WeatherDisplay:10.37,2013-03-30 23:40:00,
2013-03-31 00:45:00,42.1,40.2,29.54,North,0,0.0,0.0,93,0.04,-RA,SKC,0.28,WeatherDisplay:10.37,2013-03-30 23:45:00,
2013-03-31 00:50:00,42.1,40.2,29.54,NW,315,1.1,1.2,93,0.04,-RA,SKC,0.28,WeatherDisplay:10.37,2013-03-30 23:50:00,
2013-03-31 00:55:00,42.1,40.2,29.53,WNW,292,1.3,1.3,93,0.04,-RA,SKC,0.28,WeatherDisplay:10.37,2013-03-30 23:55:00,
2013-03-31 01:00:00,42.1,40.2,29.53,NNE,22,0.0,0.0,93,0.04,-RA,SKC,0.28,WeatherDisplay:10.37,2013-03-31 00:00:00,
2013-03-31 01:05:00,41.9,40.0,29.53,North,0,0.0,0.0,93,0.02,-RA,SKC,0.28,WeatherDisplay:10.37,2013-03-31 00:05:00,
2013-03-31 01:10:00,41.9,40.0,29.53,NW,315,2.0,7.4,93,0.04,-RA,SKC,0.30,WeatherDisplay:10.37,2013-03-31 00:10:00,
2013-03-31 01:15:00,41.9,40.0,29.52,NW,315,0.0,1.2,93,0.04,-RA,SKC,0.30,WeatherDisplay:10.37,2013-03-31 00:15:00,
2013-03-31 01:20:00,41.9,40.0,29.52,WNW,292,0.0,1.2,93,0.02,-RA,SKC,0.30,WeatherDisplay:10.37,2013-03-31 00:20:00,
2013-03-31 01:25:00,41.9,40.0,29.52,NW,315,0.5,2.3,93,0.02,-RA,SKC,0.30,WeatherDisplay:10.37,2013-03-31 00:25:00,
2013-03-31 01:30:00,41.7,39.8,29.52,North,0,0.2,1.2,93,0.02,-RA,SKC,0.30,WeatherDisplay:10.37,2013-03-31 00:30:00,
2013-03-31 01:35:00,41.7,39.8,29.52,NW,315,0.0,0.0,93,0.02,-RA,SKC,0.30,WeatherDisplay:10.37,2013-03-31 00:35:00,
2013-03-31 01:40:00,41.7,39.8,29.52,NNE,22,0.0,0.0,93,0.02,-RA,SKC,0.34,WeatherDisplay:10.37,2013-03-31 00:40:00,
2013-03-31 01:46:00,41.7,39.8,29.52,NNW,338,2.0,2.3,93,0.06,-RA,SKC,0.34,WeatherDisplay:10.37,2013-03-31 00:46:00,
2013-03-31 01:51:00,41.7,39.8,29.51,NNW,338,2.0,2.3,93,0.06,-RA,SKC,0.34,WeatherDisplay:10.37,2013-03-31 00:51:00,
2013-03-31 01:56:00,41.7,39.8,29.51,North,0,0.0,0.0,93,0.08,-RA,SKC,0.36,WeatherDisplay:10.37,2013-03-31 00:56:00,
2013-03-31 03:01:00,41.7,39.8,29.51,NW,315,0.0,0.0,93,0.08,-RA,SKC,0.36,WeatherDisplay:10.37,2013-03-31 01:01:00,
2013-03-31 03:06:00,41.7,39.8,29.50,NNW,338,1.6,1.6,93,0.08,-RA,SKC,0.36,WeatherDisplay:10.37,2013-03-31 01:06:00,
2013-03-31 03:11:00,41.5,39.7,29.50,NNW,338,0.0,1.2,93,0.06,-RA,SKC,0.36,WeatherDisplay:10.37,2013-03-31 01:11:00,
2013-03-31 03:16:00,41.7,39.8,29.50,WNW,292,0.9,1.2,93,0.06,-RA,SKC,0.36,WeatherDisplay:10.37,2013-03-31 01:16:00,
2013-03-31 03:21:00,41.7,39.8,29.50,North,349,1.0,1.0,93,0.00,OVC,SKC,0.36,WeatherDisplay:10.37,2013-03-31 01:21:00,
2013-03-31 03:26:00,41.7,39.8,29.50,NNW,330,1.0,2.0,93,0.00,OVC,SKC,0.36,WeatherDisplay:10.37,2013-03-31 01:26:00,
2013-03-31 03:31:00,41.7,39.8,29.49,NW,326,0.0,0.0,93,0.00,OVC,SKC,0.36,WeatherDisplay:10.37,2013-03-31 01:31:00,
2013-03-31 03:36:00,41.7,39.8,29.49,NW,321,0.0,0.0,93,0.00,OVC,SKC,0.36,WeatherDisplay:10.37,2013-03-31 01:36:00,
2013-03-31 03:41:00,41.7,39.9,29.49,NW,315,0.0,0.0,93,0.00,OVC,SKC,0.36,WeatherDisplay:10.37,2013-03-31 01:41:00,
2013-03-31 03:46:00,41.9,40.0,29.49,NW,306,0.0,7.0,93,0.00,OVC,SKC,0.36,WeatherDisplay:10.37,2013-03-31 01:46:00,
2013-03-31 03:51:00,41.9,40.0,29.49,NW,315,1.1,1.2,93,0.02,OVC,SKC,0.36,WeatherDisplay:10.37,2013-03-31 01:51:00,
2013-03-31 03:56:00,41.9,40.0,29.48,NW,315,0.0,0.0,93,0.00,OVC,SKC,0.36,WeatherDisplay:10.37,2013-03-31 01:56:00,
2013-03-31 04:01:00,41.9,40.0,29.48,NW,315,0.0,0.0,93,0.00,OVC,SKC,0.36,WeatherDisplay:10.37,2013-03-31 02:01:00,
2013-03-31 04:06:00,41.9,40.0,29.48,NW,315,0.0,3.5,93,0.00,OVC,SKC,0.36,WeatherDisplay:10.37,2013-03-31 02:06:00,
2013-03-31 04:11:00,41.9,40.0,29.47,NW,315,0.0,0.0,93,0.00,OVC,SKC,0.36,WeatherDisplay:10.37,2013-03-31 02:11:00,
2013-03-31 04:16:00,41.9,40.0,29.47,NW,315,0.0,0.0,93,0.00,OVC,SKC,0.36,WeatherDisplay:10.37,2013-03-31 02:16:00,
2013-03-31 04:21:00,41.9,40.0,29.47,NW,316,0.0,0.0,93,0.00,OVC,SKC,0.36,WeatherDisplay:10.37,2013-03-31 02:21:00,
2013-03-31 04:26:00,41.9,40.0,29.47,NW,316,0.0,0.0,93,0.00,OVC,SKC,0.36,WeatherDisplay:10.37,2013-03-31 02:26:00,
2013-03-31 04:31:00,41.9,40.0,29.46,NW,315,0.0,0.0,93,0.00,OVC,SKC,0.36,WeatherDisplay:10.37,2013-03-31 02:31:00,
2013-03-31 04:36:00,42.1,40.2,29.46,NNW,338,0.0,0.0,93,0.00,OVC,SKC,0.36,WeatherDisplay:10.37,2013-03-31 02:36:00,
2013-03-31 04:41:00,42.1,40.2,29.46,North,0,1.1,2.3,93,0.00,OVC,SKC,0.36,WeatherDisplay:10.37,2013-03-31 02:41:00,
2013-03-31 04:46:00,42.1,40.2,29.46,NNW,338,0.0,0.0,93,0.00,OVC,SKC,0.36,WeatherDisplay:10.37,2013-03-31 02:46:00,
2013-03-31 04:51:00,42.3,40.4,29.46,NW,315,0.0,0.0,93,0.00,OVC,SKC,0.36,WeatherDisplay:10.37,2013-03-31 02:51:00,
2013-03-31 04:56:00,42.4,40.6,29.46,North,0,0.7,1.2,93,0.00,OVC,SKC,0.36,WeatherDisplay:10.37,2013-03-31 02:56:00,
2013-03-31 05:02:00,42.4,40.6,29.46,WNW,292,2.3,6.9,93,0.02,RA,SKC,0.38,WeatherDisplay:10.37,2013-03-31 03:02:00,
2013-03-31 05:07:00,42.4,40.6,29.45,NNW,338,0.3,1.2,93,0.02,RA,SKC,0.38,WeatherDisplay:10.37,2013-03-31 03:07:00,
2013-03-31 05:12:00,42.4,40.6,29.45,NNW,338,1.2,2.3,93,0.02,OVC,SKC,0.38,WeatherDisplay:10.37,2013-03-31 03:12:00,
2013-03-31 05:17:00,42.4,40.6,29.45,NW,315,0.0,2.3,93,0.02,-RA,SKC,0.38,WeatherDisplay:10.37,2013-03-31 03:17:00,
2013-03-31 05:22:00,42.4,40.6,29.45,NW,315,0.0,0.0,93,0.02,-RA,SKC,0.38,WeatherDisplay:10.37,2013-03-31 03:22:00,
2013-03-31 05:27:00,42.4,40.6,29.44,WNW,292,0.9,1.2,93,0.02,-RA,SKC,0.38,WeatherDisplay:10.37,2013-03-31 03:27:00,
2013-03-31 05:32:00,42.6,40.7,29.45,NW,315,0.9,1.2,93,0.02,-RA,SKC,0.38,WeatherDisplay:10.37,2013-03-31 03:32:00,
2013-03-31 05:37:00,42.6,40.7,29.45,WNW,292,1.7,3.6,93,0.02,-RA,SKC,0.38,WeatherDisplay:10.37,2013-03-31 03:37:00,
2013-03-31 05:42:00,42.6,41.0,29.44,NNW,338,1.5,1.5,94,0.02,-RA,SKC,0.38,WeatherDisplay:10.37,2013-03-31 03:42:00,
2013-03-31 05:47:00,42.6,41.0,29.44,NNW,338,0.8,2.3,94,0.02,-RA,SKC,0.38,WeatherDisplay:10.37,2013-03-31 03:47:00,
2013-03-31 05:52:00,42.6,40.7,29.44,WNW,294,2.5,2.5,93,0.02,-RA,SKC,0.38,WeatherDisplay:10.37,2013-03-31 03:52:00,
2013-03-31 05:57:00,42.6,40.7,29.44,NW,315,0.0,0.0,93,0.02,-RA,SKC,0.38,WeatherDisplay:10.37,2013-03-31 03:57:00,
2013-03-31 06:00:00,42.6,40.7,29.44,NW,310,0.0,0.0,93,0.00,-RA,SKC,0.38,WeatherDisplay:10.37,2013-03-31 04:00:00,
2013-03-31 06:05:00,42.8,40.9,29.44,WNW,292,2.0,2.7,93,0.00,-RA,SKC,0.38,WeatherDisplay:10.37,2013-03-31 04:05:00,
2013-03-31 06:10:00,43.0,41.4,29.44,NW,316,1.6,1.6,94,0.02,-RA,SKC,0.40,WeatherDisplay:10.37,2013-03-31 04:10:00,
2013-03-31 06:15:00,43.0,41.4,29.44,WNW,292,0.9,1.2,94,0.02,-RA,SKC,0.40,WeatherDisplay:10.37,2013-03-31 04:15:00,
2013-03-31 06:20:00,43.0,41.4,29.43,NW,315,0.0,0.0,94,0.02,-RA,SKC,0.40,WeatherDisplay:10.37,2013-03-31 04:20:00,
2013-03-31 06:25:00,43.0,41.4,29.43,NNW,338,0.3,1.2,94,0.02,-RA,SKC,0.40,WeatherDisplay:10.37,2013-03-31 04:25:00,
2013-03-31 06:30:00,43.0,41.1,29.43,West,270,0.0,0.0,93,0.02,-RA,SKC,0.40,WeatherDisplay:10.37,2013-03-31 04:30:00,
2013-03-31 06:35:00,43.0,41.4,29.43,WNW,292,0.0,0.0,94,0.04,-RA,SKC,0.42,WeatherDisplay:10.37,2013-03-31 04:35:00,
2013-03-31 06:40:00,43.0,41.4,29.42,NW,315,0.0,0.0,94,0.04,-RA,SKC,0.42,WeatherDisplay:10.37,2013-03-31 04:40:00,
2013-03-31 06:45:00,43.0,41.4,29.42,NW,315,0.0,0.0,94,0.04,-RA,SKC,0.42,WeatherDisplay:10.37,2013-03-31 04:45:00,
2013-03-31 06:50:00,43.0,41.4,29.42,NW,315,0.9,1.2,94,0.06,-RA,SKC,0.44,WeatherDisplay:10.37,2013-03-31 04:50:00,
2013-03-31 06:55:00,43.0,41.4,29.41,NW,315,0.1,0.0,94,0.08,-RA,SKC,0.46,WeatherDisplay:10.37,2013-03-31 04:55:00,
2013-03-31 07:00:00,43.0,41.4,29.40,North,0,0.0,0.0,94,0.08,-RA,SKC,0.46,WeatherDisplay:10.37,2013-03-31 05:00:00,
2013-03-31 07:05:00,43.2,41.6,29.40,WNW,292,0.0,0.0,94,0.08,-RA,SKC,0.46,WeatherDisplay:10.37,2013-03-31 05:05:00,
2013-03-31 07:10:00,43.2,41.6,29.40,WNW,292,0.0,0.0,94,0.06,-RA,SKC,0.46,WeatherDisplay:10.37,2013-03-31 05:10:00,
2013-03-31 07:15:00,43.3,41.7,29.40,NW,315,0.2,1.2,94,0.06,-RA,SKC,0.46,WeatherDisplay:10.37,2013-03-31 05:15:00,
2013-03-31 07:20:00,43.3,41.7,29.40,NW,315,1.7,2.3,94,0.06,BKN,SKC,0.46,WeatherDisplay:10.37,2013-03-31 05:20:00,
2013-03-31 07:25:00,43.5,41.9,29.40,WNW,292,1.3,1.6,94,0.06,BKN,SKC,0.46,WeatherDisplay:10.37,2013-03-31 05:25:00,
2013-03-31 07:30:00,43.5,41.9,29.40,NW,315,0.0,0.0,94,0.06,BKN,SKC,0.46,WeatherDisplay:10.37,2013-03-31 05:30:00,
2013-03-31 07:35:00,43.5,41.9,29.40,NNW,338,0.1,1.2,94,0.04,BKN,SKC,0.46,WeatherDisplay:10.37,2013-03-31 05:35:00,
2013-03-31 07:40:00,43.5,41.9,29.41,West,270,1.6,3.6,94,0.04,BKN,SKC,0.46,WeatherDisplay:10.37,2013-03-31 05:40:00,
2013-03-31 07:45:00,43.7,42.1,29.41,WNW,292,1.6,1.6,94,0.04,BKN,SKC,0.46,WeatherDisplay:10.37,2013-03-31 05:45:00,
2013-03-31 07:50:00,43.7,42.1,29.42,WNW,292,1.5,1.5,94,0.02,-RA,SKC,0.46,WeatherDisplay:10.37,2013-03-31 05:50:00,
2013-03-31 07:55:00,44.1,42.4,29.42,WNW,292,0.0,0.0,94,0.00,-RA,SKC,0.46,WeatherDisplay:10.37,2013-03-31 05:55:00,
2013-03-31 08:00:00,44.1,42.4,29.42,WNW,292,0.0,0.0,94,0.04,-RA,SKC,0.00,WeatherDisplay:10.37,2013-03-31 06:00:00,
2013-03-31 08:05:00,43.9,42.3,29.42,WNW,292,0.0,0.0,94,0.04,-RA,SKC,0.00,WeatherDisplay:10.37,2013-03-31 06:05:00,
2013-03-31 08:10:00,43.7,42.1,29.42,WNW,292,0.0,0.0,94,0.06,-RA,SKC,0.02,WeatherDisplay:10.37,2013-03-31 06:10:00,
2013-03-31 08:15:00,43.7,42.1,29.41,WNW,292,0.0,0.0,94,0.08,-RA,SKC,0.04,WeatherDisplay:10.37,2013-03-31 06:15:00,
2013-03-31 08:20:00,43.7,42.1,29.41,WNW,292,0.0,0.0,94,0.08,-RA,SKC,0.04,WeatherDisplay:10.37,2013-03-31 06:20:00,
2013-03-31 08:25:00,43.7,42.1,29.40,WNW,292,0.0,0.0,94,0.08,-RA,SKC,0.04,WeatherDisplay:10.37,2013-03-31 06:25:00,
2013-03-31 08:30:00,43.9,42.3,29.40,WNW,292,1.8,2.3,94,0.08,-RA,SKC,0.04,WeatherDisplay:10.37,2013-03-31 06:30:00,
2013-03-31 08:35:00,43.9,42.3,29.39,WNW,292,1.8,2.3,94,0.08,OVC,SKC,0.04,WeatherDisplay:10.37,2013-03-31 06:35:00,
2013-03-31 08:40:00,43.9,42.3,29.39,WNW,294,1.8,2.3,94,0.08,OVC,SKC,0.04,WeatherDisplay:10.37,2013-03-31 06:40:00,
2013-03-31 08:45:00,43.9,42.3,29.39,WNW,294,1.8,2.3,94,0.08,OVC,SKC,0.04,WeatherDisplay:10.37,2013-03-31 06:45:00,
2013-03-31 08:50:00,44.4,42.8,29.40,NW,315,0.0,0.0,94,0.10,-RA,SKC,0.06,WeatherDisplay:10.37,2013-03-31 06:50:00,
2013-03-31 08:55:00,44.4,42.8,29.39,NW,315,1.4,2.3,94,0.16,-RA,SKC,0.12,WeatherDisplay:10.37,2013-03-31 06:55:00,
2013-03-31 09:00:00,44.6,43.0,29.39,WNW,294,1.9,3.5,94,0.12,-RA,SKC,0.12,WeatherDisplay:10.37,2013-03-31 07:00:00,
2013-03-31 09:05:00,44.6,43.0,29.39,West,270,0.0,0.0,94,0.14,-RA,SKC,0.14,WeatherDisplay:10.37,2013-03-31 07:05:00,
2013-03-31 09:10:00,44.6,43.0,29.39,WNW,292,0.7,1.2,94,0.12,-RA,SKC,0.14,WeatherDisplay:10.37,2013-03-31 07:10:00,
2013-03-31 09:15:00,45.1,43.5,29.39,WNW,292,0.2,1.2,94,0.10,-RA,SKC,0.14,WeatherDisplay:10.37,2013-03-31 07:15:00,
2013-03-31 09:20:00,45.1,43.5,29.39,NW,315,2.2,2.3,94,0.10,-RA,SKC,0.14,WeatherDisplay:10.37,2013-03-31 07:20:00,
2013-03-31 09:25:00,45.1,43.5,29.39,NW,315,1.1,2.3,94,0.10,-RA,SKC,0.14,WeatherDisplay:10.37,2013-03-31 07:25:00,
2013-03-31 09:30:00,45.3,43.7,29.39,NNW,338,1.0,1.2,94,0.12,-RA,SKC,0.16,WeatherDisplay:10.37,2013-03-31 07:30:00,
2013-03-31 09:35:00,45.3,43.7,29.38,NW,315,1.2,1.2,94,0.14,-RA,SKC,0.18,WeatherDisplay:10.37,2013-03-31 07:35:00,
2013-03-31 09:40:00,45.5,43.9,29.38,NW,315,0.0,0.0,94,0.14,-RA,SKC,0.18,WeatherDisplay:10.37,2013-03-31 07:40:00,
2013-03-31 09:45:00,45.7,44.1,29.38,NNW,338,0.2,1.2,94,0.14,-RA,SKC,0.18,WeatherDisplay:10.37,2013-03-31 07:45:00,
2013-03-31 09:50:00,45.7,44.1,29.38,WNW,292,0.0,0.0,94,0.12,-RA,SKC,0.18,WeatherDisplay:10.37,2013-03-31 07:50:00,
2013-03-31 09:55:00,45.7,44.3,29.38,NNW,338,3.1,3.5,95,0.06,-RA,SKC,0.18,WeatherDisplay:10.37,2013-03-31 07:55:00,
2013-03-31 10:00:00,45.7,44.3,29.39,WNW,292,0.0,0.0,95,0.06,-RA,SKC,0.18,WeatherDisplay:10.37,2013-03-31 08:00:00,
2013-03-31 10:05:00,45.9,44.5,29.38,NW,315,0.0,0.0,95,0.04,-RA,SKC,0.18,WeatherDisplay:10.37,2013-03-31 08:05:00,
2013-03-31 10:10:00,45.9,44.5,29.39,NW,315,0.0,0.0,95,0.04,-RA,SKC,0.18,WeatherDisplay:10.37,2013-03-31 08:10:00,
2013-03-31 10:15:00,45.9,44.5,29.39,WNW,292,0.0,0.0,95,0.04,-RA,SKC,0.18,WeatherDisplay:10.37,2013-03-31 08:15:00,
2013-03-31 10:20:00,46.0,44.7,29.39,NW,315,0.8,1.2,95,0.04,-RA,SKC,0.18,WeatherDisplay:10.37,2013-03-31 08:20:00,
2013-03-31 10:25:00,46.0,44.7,29.39,WNW,294,6.0,6.0,95,0.04,-RA,SKC,0.18,WeatherDisplay:10.37,2013-03-31 08:25:00,
2013-03-31 10:30:00,46.2,44.9,29.39,WNW,292,0.0,0.0,95,0.02,-RA,SKC,0.18,WeatherDisplay:10.37,2013-03-31 08:30:00,
2013-03-31 10:36:00,46.2,44.9,29.39,NW,315,0.0,0.0,95,0.00,-RA,SKC,0.18,WeatherDisplay:10.37,2013-03-31 08:36:00,
2013-03-31 10:41:00,46.2,44.9,29.39,NW,315,0.0,0.0,95,0.00,-RA,SKC,0.18,WeatherDisplay:10.37,2013-03-31 08:41:00,
2013-03-31 10:46:00,46.3,44.9,29.39,NW,306,0.0,0.0,95,0.00,-RA,SKC,0.18,WeatherDisplay:10.37,2013-03-31 08:46:00,
2013-03-31 10:51:00,46.6,44.9,29.38,WNW,299,0.0,0.0,94,0.00,-RA,SKC,0.18,WeatherDisplay:10.37,2013-03-31 08:51:00,
2013-03-31 10:56:00,46.7,45.0,29.39,WNW,298,0.0,0.0,94,0.00,-RA,SKC,0.18,WeatherDisplay:10.37,2013-03-31 08:56:00,
2013-03-31 11:01:00,46.6,45.2,29.39,WNW,294,2.0,2.0,95,0.00,-RA,SKC,0.18,WeatherDisplay:10.37,2013-03-31 09:01:00,
2013-03-31 11:06:00,46.6,45.2,29.38,WNW,292,2.0,11.5,95,0.00,-RA,SKC,0.18,WeatherDisplay:10.37,2013-03-31 09:06:00,
2013-03-31 11:11:00,46.8,45.1,29.39,NW,315,0.0,0.0,94,0.02,-RA,SKC,0.20,WeatherDisplay:10.37,2013-03-31 09:11:00,
2013-03-31 11:16:00,46.8,45.1,29.38,NW,315,0.8,1.2,94,0.02,RA,SKC,0.20,WeatherDisplay:10.37,2013-03-31 09:16:00,
2013-03-31 11:21:00,46.8,45.1,29.38,NW,315,0.9,1.2,94,0.02,BKN,SKC,0.20,WeatherDisplay:10.37,2013-03-31 09:21:00,
2013-03-31 11:26:00,46.8,45.1,29.38,NW,315,1.0,1.0,94,0.00,BKN,SKC,0.20,WeatherDisplay:10.37,2013-03-31 09:26:00,
2013-03-31 11:31:00,46.8,45.1,29.38,NW,316,1.0,1.0,94,0.00,BKN,SKC,0.20,WeatherDisplay:10.37,2013-03-31 09:31:00,
2013-03-31 11:36:00,46.8,45.1,29.37,NW,316,1.0,1.0,94,0.00,BKN,SKC,0.20,WeatherDisplay:10.37,2013-03-31 09:36:00,
2013-03-31 11:41:00,46.9,45.3,29.37,NW,305,1.0,1.0,94,0.00,BKN,SKC,0.20,WeatherDisplay:10.37,2013-03-31 09:41:00,
2013-03-31 11:46:00,46.9,45.6,29.37,NW,308,1.0,1.0,95,0.00,BKN,SKC,0.20,WeatherDisplay:10.37,2013-03-31 09:46:00,
2013-03-31 11:51:00,46.9,45.6,29.36,NW,316,1.0,2.0,95,0.00,BKN,SKC,0.20,WeatherDisplay:10.37,2013-03-31 09:51:00,
2013-03-31 11:56:00,46.9,45.3,29.36,WNW,298,1.0,2.0,94,0.00,BKN,SKC,0.20,WeatherDisplay:10.37,2013-03-31 09:56:00,
2013-03-31 12:01:00,47.1,45.8,29.37,WNW,301,0.0,0.0,95,0.00,BKN,SKC,0.20,WeatherDisplay:10.37,2013-03-31 10:01:00,
2013-03-31 12:06:00,47.1,45.5,29.37,NW,315,0.0,1.2,94,0.02,BKN,SKC,0.20,WeatherDisplay:10.37,2013-03-31 10:06:00,
2013-03-31 12:11:00,47.1,45.5,29.37,NW,315,0.9,1.2,94,0.00,BKN,SKC,0.20,WeatherDisplay:10.37,2013-03-31 10:11:00,
2013-03-31 12:16:00,47.3,45.7,29.37,WNW,292,2.5,2.5,94,0.00,BKN,SKC,0.20,WeatherDisplay:10.37,2013-03-31 10:16:00,
2013-03-31 12:21:00,47.3,45.7,29.38,WNW,292,2.5,2.5,94,0.00,BKN,SKC,0.20,WeatherDisplay:10.37,2013-03-31 10:21:00,
2013-03-31 12:26:00,47.3,45.7,29.37,WNW,294,2.5,2.5,94,0.00,BKN,SKC,0.20,WeatherDisplay:10.37,2013-03-31 10:26:00,
2013-03-31 12:31:00,47.3,45.7,29.37,WNW,294,2.5,2.5,94,0.00,BKN,SKC,0.20,WeatherDisplay:10.37,2013-03-31 10:31:00,
2013-03-31 12:36:00,46.8,45.1,29.38,WNW,292,2.5,2.5,94,0.00,BKN,SKC,0.20,WeatherDisplay:10.37,2013-03-31 10:36:00,
2013-03-31 12:41:00,46.6,44.9,29.39,WNW,292,4.9,8.7,94,0.00,BKN,SKC,0.20,WeatherDisplay:10.37,2013-03-31 10:41:00,
2013-03-31 12:46:00,46.2,44.6,29.39,WNW,292,8.4,9.2,94,0.00,BKN,SKC,0.20,WeatherDisplay:10.37,2013-03-31 10:46:00,
2013-03-31 12:52:00,46.2,44.6,29.39,NNW,338,6.7,9.2,94,0.00,BKN,SKC,0.20,WeatherDisplay:10.37,2013-03-31 10:52:00,
2013-03-31 12:57:00,46.0,44.4,29.39,NW,307,1.0,1.0,94,0.00,BKN,SKC,0.20,WeatherDisplay:10.37,2013-03-31 10:57:00,
2013-03-31 13:02:00,45.7,44.1,29.39,WNW,292,8.5,9.2,94,0.00,BKN,SKC,0.22,WeatherDisplay:10.37,2013-03-31 11:02:00,
2013-03-31 13:07:00,45.3,43.4,29.40,WNW,292,5.1,5.1,93,0.02,RA,SKC,0.22,WeatherDisplay:10.37,2013-03-31 11:07:00,
2013-03-31 13:12:00,45.1,43.2,29.39,WNW,292,2.4,3.5,93,0.02,BKN,SKC,0.22,WeatherDisplay:10.37,2013-03-31 11:12:00,
2013-03-31 13:17:00,44.6,42.7,29.39,WNW,292,2.3,3.5,93,0.06,-RA,SKC,0.26,WeatherDisplay:10.37,2013-03-31 11:17:00,
2013-03-31 13:22:00,44.4,42.5,29.39,WNW,292,8.9,9.2,93,0.06,-RA,SKC,0.26,WeatherDisplay:10.37,2013-03-31 11:22:00,
2013-03-31 13:27:00,44.4,42.5,29.37,WNW,292,8.3,9.2,93,0.06,-RA,SKC,0.26,WeatherDisplay:10.37,2013-03-31 11:27:00,
2013-03-31 13:32:00,44.2,42.3,29.37,WNW,292,4.7,4.7,93,0.06,-RA,SKC,0.26,WeatherDisplay:10.37,2013-03-31 11:32:00,
2013-03-31 13:37:00,44.4,42.5,29.38,WNW,292,3.6,3.6,93,0.06,-RA,SKC,0.26,WeatherDisplay:10.37,2013-03-31 11:37:00,
2013-03-31 13:43:00,44.2,42.3,29.38,WNW,292,4.0,4.0,93,0.06,-RA,SKC,0.26,WeatherDisplay:10.37,2013-03-31 11:43:00,
2013-03-31 13:48:00,44.2,42.3,29.38,West,270,1.8,9.4,93,0.06,OVC,SKC,0.26,WeatherDisplay:10.37,2013-03-31 11:48:00,
2013-03-31 13:53:00,43.9,42.0,29.39,WSW,248,4.2,4.6,93,0.08,RA,SKC,0.28,WeatherDisplay:10.37,2013-03-31 11:53:00,
2013-03-31 13:58:00,43.5,41.6,29.39,West,270,8.0,9.2,93,0.10,RA,SKC,0.30,WeatherDisplay:10.37,2013-03-31 11:58:00,
2013-03-31 14:03:00,43.5,41.6,29.39,WNW,292,3.3,3.5,93,0.08,RA,SKC,0.30,WeatherDisplay:10.37,2013-03-31 12:03:00,
2013-03-31 14:08:00,43.5,41.4,29.39,WNW,292,7.2,9.2,92,0.08,OVC,SKC,0.30,WeatherDisplay:10.37,2013-03-31 12:08:00,
2013-03-31 14:13:00,43.0,40.8,29.39,WNW,292,8.5,8.5,92,0.08,OVC,SKC,0.30,WeatherDisplay:10.37,2013-03-31 12:13:00,
2013-03-31 14:18:00,42.4,40.0,29.39,NNW,338,4.4,5.8,91,0.04,-RA,SKC,0.30,WeatherDisplay:10.37,2013-03-31 12:18:00,
2013-03-31 14:23:00,42.1,39.6,29.40,NW,315,5.7,5.8,91,0.04,-RA,SKC,0.30,WeatherDisplay:10.37,2013-03-31 12:23:00,
2013-03-31 14:28:00,41.7,39.6,29.40,WNW,292,6.1,12.7,92,0.04,-RA,SKC,0.30,WeatherDisplay:10.37,2013-03-31 12:28:00,
2013-03-31 14:33:00,41.7,39.6,29.39,West,270,8.0,9.2,92,0.04,-RA,SKC,0.30,WeatherDisplay:10.37,2013-03-31 12:33:00,
2013-03-31 14:38:00,41.5,39.1,29.39,NW,315,5.6,5.8,91,0.04,-RA,SKC,0.30,WeatherDisplay:10.37,2013-03-31 12:38:00,
2013-03-31 14:43:00,41.7,39.3,29.39,NNE,22,6.5,16.1,91,0.04,-RA,SKC,0.30,WeatherDisplay:10.37,2013-03-31 12:43:00,
2013-03-31 14:48:00,41.5,39.1,29.40,WNW,292,8.6,12.7,91,0.04,-RA,SKC,0.30,WeatherDisplay:10.37,2013-03-31 12:48:00,
2013-03-31 14:53:00,41.5,39.1,29.40,WNW,292,5.6,6.9,91,0.02,-RA,SKC,0.30,WeatherDisplay:10.37,2013-03-31 12:53:00,
2013-03-31 14:58:00,41.5,39.1,29.40,WNW,292,6.7,9.2,91,0.00,-RA,SKC,0.30,WeatherDisplay:10.37,2013-03-31 12:58:00,
2013-03-31 15:03:00,41.5,39.1,29.41,WNW,292,6.0,6.9,91,0.00,BKN,SKC,0.30,WeatherDisplay:10.37,2013-03-31 13:03:00,
2013-03-31 15:08:00,41.4,38.9,29.41,WNW,292,6.6,10.4,91,0.00,BKN,SKC,0.30,WeatherDisplay:10.37,2013-03-31 13:08:00,
2013-03-31 15:13:00,41.5,39.1,29.41,WNW,292,10.5,10.5,91,0.00,BKN,SKC,0.30,WeatherDisplay:10.37,2013-03-31 13:13:00,
2013-03-31 15:18:00,41.5,39.1,29.41,WNW,292,10.5,10.5,91,0.00,BKN,SKC,0.30,WeatherDisplay:10.37,2013-03-31 13:18:00,
2013-03-31 15:23:00,41.5,39.1,29.42,WNW,294,10.5,10.5,91,0.00,BKN,SKC,0.30,WeatherDisplay:10.37,2013-03-31 13:23:00,
2013-03-31 15:28:00,41.5,39.1,29.42,WNW,294,10.5,10.5,91,0.00,BKN,SKC,0.30,WeatherDisplay:10.37,2013-03-31 13:28:00,
2013-03-31 15:33:00,41.7,39.3,29.42,NE,45,10.4,15.0,91,0.00,BKN,SKC,0.30,WeatherDisplay:10.37,2013-03-31 13:33:00,
2013-03-31 15:38:00,41.4,38.6,29.43,NNW,338,10.2,12.7,90,0.00,BKN,SKC,0.30,WeatherDisplay:10.37,2013-03-31 13:38:00,
2013-03-31 15:43:00,41.2,38.5,29.43,WNW,292,15.0,15.0,90,0.00,BKN,SKC,0.30,WeatherDisplay:10.37,2013-03-31 13:43:00,
2013-03-31 15:48:00,40.8,38.1,29.44,North,0,2.5,2.5,90,0.00,BKN,SKC,0.30,WeatherDisplay:10.37,2013-03-31 13:48:00,
2013-03-31 15:53:00,40.8,38.1,29.43,NW,315,8.2,9.2,90,0.00,BKN,SKC,0.30,WeatherDisplay:10.37,2013-03-31 13:53:00,
2013-03-31 15:58:00,40.8,38.1,29.43,NNW,338,1.3,1.3,90,0.00,BKN,SKC,0.30,WeatherDisplay:10.37,2013-03-31 13:58:00,
2013-03-31 16:03:00,40.8,38.1,29.44,North,0,4.0,4.0,90,0.00,BKN,SKC,0.30,WeatherDisplay:10.37,2013-03-31 14:03:00,
2013-03-31 16:08:00,41.2,38.5,29.44,NNE,22,3.2,3.5,90,0.00,BKN,SKC,0.30,WeatherDisplay:10.37,2013-03-31 14:08:00,
2013-03-31 16:13:00,41.2,38.5,29.44,NNW,338,1.8,2.3,90,0.00,BKN,SKC,0.30,WeatherDisplay:10.37,2013-03-31 14:13:00,
2013-03-31 16:18:00,41.4,38.6,29.44,NNW,338,1.8,2.3,90,0.00,BKN,SKC,0.30,WeatherDisplay:10.37,2013-03-31 14:18:00,
2013-03-31 16:23:00,41.4,38.6,29.44,NNW,338,1.6,1.6,90,0.00,BKN,SKC,0.30,WeatherDisplay:10.37,2013-03-31 14:23:00,
2013-03-31 16:28:00,40.8,37.8,29.45,NE,45,1.8,2.3,89,0.00,BKN,SKC,0.30,WeatherDisplay:10.37,2013-03-31 14:28:00,
2013-03-31 16:33:00,40.5,37.5,29.45,WNW,292,8.5,8.5,89,0.00,BKN,SKC,0.30,WeatherDisplay:10.37,2013-03-31 14:33:00,
2013-03-31 16:38:00,40.3,37.6,29.46,SE,135,0.0,0.0,90,0.00,BKN,SKC,0.30,WeatherDisplay:10.37,2013-03-31 14:38:00,
2013-03-31 16:43:00,40.1,37.4,29.46,NNE,22,0.0,0.0,90,0.00,BKN,SKC,0.30,WeatherDisplay:10.37,2013-03-31 14:43:00,
2013-03-31 16:49:00,39.9,37.2,29.46,East,86,1.0,1.0,90,0.00,BKN,SKC,0.31,WeatherDisplay:10.37,2013-03-31 14:49:00,
2013-03-31 16:54:00,40.1,37.4,29.46,NNE,25,3.0,3.0,90,0.00,BKN,SKC,0.31,WeatherDisplay:10.37,2013-03-31 14:54:00,
2013-03-31 16:59:00,39.7,37.0,29.46,NNW,348,7.0,7.0,90,0.00,BKN,SKC,0.31,WeatherDisplay:10.37,2013-03-31 14:59:00,
2013-03-31 17:04:00,39.6,36.6,29.46,West,270,7.3,8.1,89,0.00,BKN,SKC,0.30,WeatherDisplay:10.37,2013-03-31 15:04:00,
2013-03-31 17:09:00,39.6,36.3,29.46,NW,315,6.3,11.5,88,0.00,BKN,SKC,0.30,WeatherDisplay:10.37,2013-03-31 15:09:00,
2013-03-31 17:14:00,39.4,36.1,29.47,NNE,22,6.0,6.0,88,0.00,BKN,SKC,0.30,WeatherDisplay:10.37,2013-03-31 15:14:00,
2013-03-31 17:19:00,39.0,35.8,29.47,NNW,338,8.7,9.2,88,0.00,BKN,SKC,0.30,WeatherDisplay:10.37,2013-03-31 15:19:00,
2013-03-31 17:24:00,38.5,35.2,29.47,NNE,22,10.7,10.7,88,0.00,BKN,SKC,0.30,WeatherDisplay:10.37,2013-03-31 15:24:00,
2013-03-31 17:29:00,38.3,34.8,29.47,NNW,338,8.7,9.2,87,0.00,BKN,SKC,0.30,WeatherDisplay:10.37,2013-03-31 15:29:00,
2013-03-31 17:34:00,38.3,35.1,29.47,NW,315,8.5,8.5,88,0.00,BKN,SKC,0.30,WeatherDisplay:10.37,2013-03-31 15:34:00,
2013-03-31 17:39:00,37.8,34.2,29.48,WNW,292,8.3,11.5,87,0.00,BKN,SKC,0.30,WeatherDisplay:10.37,2013-03-31 15:39:00,
2013-03-31 17:44:00,37.6,34.1,29.48,NW,315,8.9,9.2,87,0.00,BKN,SKC,0.30,WeatherDisplay:10.37,2013-03-31 15:44:00,
2013-03-31 17:49:00,37.2,33.7,29.48,NW,315,6.7,6.9,87,0.00,BKN,SKC,0.30,WeatherDisplay:10.37,2013-03-31 15:49:00,
2013-03-31 17:54:00,37.0,33.5,29.48,NNW,338,11.4,11.5,87,0.00,BKN,SKC,0.30,WeatherDisplay:10.37,2013-03-31 15:54:00,
2013-03-31 17:59:00,36.7,33.2,29.48,NW,315,14.1,14.1,87,0.00,BKN,SKC,0.30,WeatherDisplay:10.37,2013-03-31 15:59:00,
2013-03-31 18:04:00,36.5,33.0,29.49,North,0,4.5,15.0,87,0.00,BKN,SKC,0.30,WeatherDisplay:10.37,2013-03-31 16:04:00,
2013-03-31 18:09:00,36.5,33.0,29.49,NW,315,9.6,11.5,87,0.00,BKN,SKC,0.30,WeatherDisplay:10.37,2013-03-31 16:09:00,
2013-03-31 18:14:00,36.5,33.0,29.49,NE,45,5.8,5.8,87,0.00,BKN,SKC,0.30,WeatherDisplay:10.37,2013-03-31 16:14:00,
2013-03-31 18:19:00,36.3,32.8,29.50,East,90,5.4,11.5,87,0.00,BKN,SKC,0.30,WeatherDisplay:10.37,2013-03-31 16:19:00,
2013-03-31 18:24:00,36.3,32.8,29.50,NNW,338,7.6,10.4,87,0.00,BKN,SKC,0.30,WeatherDisplay:10.37,2013-03-31 16:24:00,
2013-03-31 18:29:00,36.0,32.5,29.50,NNE,22,4.4,10.4,87,0.00,BKN,SKC,0.30,WeatherDisplay:10.37,2013-03-31 16:29:00,
2013-03-31 18:34:00,36.0,32.8,29.50,NNW,338,5.8,5.8,88,0.00,BKN,SKC,0.30,WeatherDisplay:10.37,2013-03-31 16:34:00,
2013-03-31 18:39:00,35.8,32.6,29.50,North,0,8.0,8.1,88,0.00,BKN,SKC,0.30,WeatherDisplay:10.37,2013-03-31 16:39:00,
2013-03-31 18:44:00,35.8,32.6,29.50,NW,315,8.9,9.2,88,0.00,BKN,SKC,0.30,WeatherDisplay:10.37,2013-03-31 16:44:00,
2013-03-31 18:49:00,35.4,32.2,29.50,NNE,22,2.2,4.6,88,0.00,OVC,SKC,0.30,WeatherDisplay:10.37,2013-03-31 16:49:00,
2013-03-31 18:54:00,35.4,32.2,29.51,NW,315,4.6,10.4,88,0.00,OVC,SKC,0.30,WeatherDisplay:10.37,2013-03-31 16:54:00,
2013-03-31 18:59:00,35.4,32.2,29.51,NE,45,5.1,11.5,88,0.00,OVC,SKC,0.30,WeatherDisplay:10.37,2013-03-31 16:59:00,
2013-03-31 19:04:00,35.4,32.2,29.51,NNE,22,2.8,5.8,88,0.00,OVC,SKC,0.30,WeatherDisplay:10.37,2013-03-31 17:04:00,
2013-03-31 19:09:00,35.4,32.2,29.51,North,0,0.0,0.0,88,0.00,OVC,SKC,0.30,WeatherDisplay:10.37,2013-03-31 17:09:00,
2013-03-31 19:14:00,35.4,32.2,29.51,NE,45,0.0,0.0,88,0.00,OVC,SKC,0.30,WeatherDisplay:10.37,2013-03-31 17:14:00,
2013-03-31 19:19:00,35.2,32.0,29.51,NNW,338,0.9,1.2,88,0.00,OVC,SKC,0.30,WeatherDisplay:10.37,2013-03-31 17:19:00,
2013-03-31 19:24:00,35.2,32.0,29.51,NW,315,4.9,4.9,88,0.00,OVC,SKC,0.30,WeatherDisplay:10.37,2013-03-31 17:24:00,
2013-03-31 19:29:00,35.2,32.0,29.51,NNE,22,8.5,8.5,88,0.00,OVC,SKC,0.30,WeatherDisplay:10.37,2013-03-31 17:29:00,
2013-03-31 19:34:00,35.2,32.0,29.52,North,0,5.2,5.8,88,0.00,OVC,SKC,0.30,WeatherDisplay:10.37,2013-03-31 17:34:00,
2013-03-31 19:39:00,35.2,32.0,29.52,North,0,2.9,3.5,88,0.00,OVC,SKC,0.30,WeatherDisplay:10.37,2013-03-31 17:39:00,
2013-03-31 19:44:00,35.2,32.0,29.52,North,0,8.3,13.8,88,0.00,OVC,SKC,0.30,WeatherDisplay:10.37,2013-03-31 17:44:00,
2013-03-31 19:49:00,35.2,32.0,29.53,North,0,2.5,4.6,88,0.00,OVC,SKC,0.30,WeatherDisplay:10.37,2013-03-31 17:49:00,
2013-03-31 19:54:00,35.2,32.0,29.53,North,0,2.5,2.5,88,0.00,OVC,SKC,0.30,WeatherDisplay:10.37,2013-03-31 17:54:00,
2013-03-31 19:59:00,35.1,31.9,29.53,NNE,22,2.2,5.8,88,0.00,OVC,SKC,0.30,WeatherDisplay:10.37,2013-03-31 17:59:00,
2013-03-31 20:04:00,34.9,31.7,29.54,NNE,22,7.2,8.1,88,0.00,OVC,SKC,0.30,WeatherDisplay:10.37,2013-03-31 18:04:00,
2013-03-31 20:10:00,34.9,31.7,29.54,North,11,8.0,8.0,88,0.00,OVC,SKC,0.31,WeatherDisplay:10.37,2013-03-31 18:10:00,
2013-03-31 20:15:00,34.9,31.7,29.55,North,0,3.3,3.5,88,0.00,OVC,SKC,0.30,WeatherDisplay:10.37,2013-03-31 18:15:00,
2013-03-31 20:20:00,34.9,31.7,29.55,NNW,338,12.5,12.7,88,0.00,OVC,SKC,0.30,WeatherDisplay:10.37,2013-03-31 18:20:00,
2013-03-31 20:25:00,34.9,31.7,29.54,ESE,112,2.1,3.5,88,0.00,OVC,SKC,0.30,WeatherDisplay:10.37,2013-03-31 18:25:00,
2013-03-31 20:30:00,34.8,31.6,29.53,NNE,16,0.0,2.0,88,0.00,OVC,SKC,0.31,WeatherDisplay:10.37,2013-03-31 18:30:00,
2013-03-31 20:35:00,34.5,31.0,29.53,NNE,30,6.0,6.0,87,0.00,OVC,SKC,0.31,WeatherDisplay:10.37,2013-03-31 18:35:00,
2013-03-31 20:40:00,34.5,31.0,29.54,NE,52,6.0,6.0,87,0.00,OVC,SKC,0.31,WeatherDisplay:10.37,2013-03-31 18:40:00,
2013-03-31 20:45:00,34.3,30.9,29.55,NNE,22,4.7,4.7,87,0.00,OVC,SKC,0.30,WeatherDisplay:10.37,2013-03-31 18:45:00,
2013-03-31 20:50:00,34.3,30.6,29.55,North,10,6.0,6.0,86,0.00,OVC,SKC,0.31,WeatherDisplay:10.37,2013-03-31 18:50:00,
2013-03-31 20:55:00,34.3,30.6,29.55,NNE,30,7.0,8.0,86,0.00,OVC,SKC,0.31,WeatherDisplay:10.37,2013-03-31 18:55:00,
2013-03-31 21:00:00,34.3,30.6,29.56,NNW,345,7.0,7.0,86,0.00,OVC,SKC,0.31,WeatherDisplay:10.37,2013-03-31 19:00:00,
2013-03-31 21:05:00,34.3,30.6,29.56,NNW,338,10.5,10.5,86,0.00,OVC,SKC,0.30,WeatherDisplay:10.37,2013-03-31 19:05:00,
2013-03-31 21:10:00,34.3,30.3,29.56,NNE,22,2.0,2.3,85,0.00,OVC,SKC,0.30,WeatherDisplay:10.37,2013-03-31 19:10:00,
2013-03-31 21:15:00,34.3,30.3,29.56,NNE,22,4.7,4.7,85,0.00,OVC,SKC,0.30,WeatherDisplay:10.37,2013-03-31 19:15:00,
2013-03-31 21:20:00,34.2,30.1,29.56,North,0,5.2,6.9,85,0.00,OVC,SKC,0.30,WeatherDisplay:10.37,2013-03-31 19:20:00,
2013-03-31 21:25:00,34.2,30.1,29.56,NNE,22,6.0,6.9,85,0.00,OVC,SKC,0.30,WeatherDisplay:10.37,2013-03-31 19:25:00,
2013-03-31 21:30:00,34.2,30.1,29.56,North,0,4.9,11.5,85,0.00,OVC,SKC,0.30,WeatherDisplay:10.37,2013-03-31 19:30:00,
2013-03-31 21:35:00,34.2,30.1,29.56,NW,315,6.3,6.3,85,0.00,OVC,SKC,0.30,WeatherDisplay:10.37,2013-03-31 19:35:00,
2013-03-31 21:40:00,34.0,29.9,29.57,North,0,5.9,9.2,85,0.00,OVC,SKC,0.30,WeatherDisplay:10.37,2013-03-31 19:40:00,
2013-03-31 21:45:00,34.2,30.1,29.57,NNW,338,12.1,12.1,85,0.00,OVC,SKC,0.30,WeatherDisplay:10.37,2013-03-31 19:45:00,
2013-03-31 21:50:00,34.2,30.1,29.57,NNW,338,0.9,7.8,85,0.00,BKN,SKC,0.30,WeatherDisplay:10.37,2013-03-31 19:50:00,
2013-03-31 21:55:00,34.2,30.1,29.57,North,0,4.5,4.6,85,0.00,BKN,SKC,0.30,WeatherDisplay:10.37,2013-03-31 19:55:00,
2013-03-31 22:00:00,34.0,29.9,29.57,West,270,4.7,4.7,85,0.00,BKN,SKC,0.30,WeatherDisplay:10.37,2013-03-31 20:00:00,
2013-03-31 22:05:00,34.0,29.9,29.57,NW,315,4.2,4.6,85,0.00,BKN,SKC,0.30,WeatherDisplay:10.37,2013-03-31 20:05:00,
2013-03-31 22:10:00,34.0,29.9,29.57,NW,315,7.1,7.1,85,0.00,BKN,SKC,0.30,WeatherDisplay:10.37,2013-03-31 20:10:00,
2013-03-31 22:15:00,33.8,29.5,29.57,NNW,338,7.6,11.5,84,0.00,BKN,SKC,0.30,WeatherDisplay:10.37,2013-03-31 20:15:00,
2013-03-31 22:20:00,33.6,29.3,29.57,North,0,7.9,9.2,84,0.00,BKN,SKC,0.30,WeatherDisplay:10.37,2013-03-31 20:20:00,
2013-03-31 22:25:00,33.6,29.3,29.57,NW,315,9.8,9.8,84,0.00,BKN,SKC,0.30,WeatherDisplay:10.37,2013-03-31 20:25:00,
2013-03-31 22:30:00,33.6,29.3,29.58,NNW,338,5.4,8.1,84,0.00,BKN,SKC,0.30,WeatherDisplay:10.37,2013-03-31 20:30:00,
2013-03-31 22:35:00,33.6,29.3,29.58,North,0,2.7,2.7,84,0.00,BKN,SKC,0.30,WeatherDisplay:10.37,2013-03-31 20:35:00,
2013-03-31 22:40:00,33.6,29.3,29.58,North,0,10.5,10.5,84,0.00,BKN,SKC,0.30,WeatherDisplay:10.37,2013-03-31 20:40:00,
2013-03-31 22:45:00,33.4,29.1,29.59,WNW,292,6.5,10.4,84,0.00,BKN,SKC,0.30,WeatherDisplay:10.37,2013-03-31 20:45:00,
2013-03-31 22:50:00,33.4,29.1,29.59,NNW,338,4.5,4.6,84,0.00,BKN,SKC,0.30,WeatherDisplay:10.37,2013-03-31 20:50:00,
2013-03-31 22:55:00,33.4,29.1,29.59,NW,315,0.1,2.3,84,0.00,BKN,SKC,0.30,WeatherDisplay:10.37,2013-03-31 20:55:00,
2013-03-31 23:00:00,33.4,29.1,29.59,NW,315,4.5,4.6,84,0.00,BKN,SKC,0.30,WeatherDisplay:10.37,2013-03-31 21:00:00,
2013-03-31 23:05:00,33.4,29.1,29.59,WNW,292,7.4,7.4,84,0.00,BKN,SKC,0.30,WeatherDisplay:10.37,2013-03-31 21:05:00,
2013-03-31 23:10:00,33.3,28.9,29.60,North,0,4.3,5.8,84,0.00,BKN,SKC,0.30,WeatherDisplay:10.37,2013-03-31 21:10:00,
2013-03-31 23:15:00,33.3,28.9,29.60,NE,45,2.9,3.5,84,0.00,BKN,SKC,0.30,WeatherDisplay:10.37,2013-03-31 21:15:00,
2013-03-31 23:20:00,33.3,28.9,29.60,NE,45,5.4,5.8,84,0.00,BKN,SKC,0.30,WeatherDisplay:10.37,2013-03-31 21:20:00,
2013-03-31 23:25:00,33.3,28.9,29.61,NE,45,5.4,5.8,84,0.00,BKN,SKC,0.30,WeatherDisplay:10.37,2013-03-31 21:25:00,
2013-03-31 23:30:00,33.1,28.8,29.61,NNE,22,5.4,11.5,84,0.00,BKN,SKC,0.30,WeatherDisplay:10.37,2013-03-31 21:30:00,
2013-03-31 23:35:00,33.1,28.8,29.61,North,0,18.1,18.4,84,0.00,BKN,SKC,0.30,WeatherDisplay:10.37,2013-03-31 21:35:00,
2013-03-31 23:40:00,33.1,28.8,29.62,NW,315,3.6,3.6,84,0.00,BKN,SKC,0.30,WeatherDisplay:10.37,2013-03-31 21:40:00,
2013-03-31 23:45:00,33.1,28.8,29.61,NW,315,9.4,9.4,84,0.00,BKN,SKC,0.30,WeatherDisplay:10.37,2013-03-31 21:45:00,
2013-03-31 23:50:00,33.1,28.5,29.62,NW,315,5.6,5.8,83,0.00,BKN,SKC,0.30,WeatherDisplay:10.37,2013-03-31 21:50:00,
2013-03-31 23:55:00,33.1,28.5,29.62,NNE,22,8.1,10.3,83,0.00,BKN,SKC,0.30,WeatherDisplay:10.37,2013-03-31 21:55:00,